Wind_Speed
12 13 17 19 8 16 14 13 13 13 13 13 10 11 12 10 9 10 11 10 10 7 10 9 9 10 10 9 9 9 8 8 8 7 8 7 7 8 7 6 6 7 7 7 8 8 6 6 7
10 13 12 10 10 8 8 12 13 15 13 14 12 11 12 8 9 8 7 10 9 7 9 8 9 9 9 9 9 8 8 8 9 9 8 9 10 9 7 8 6 6 6 7 7 5 4 4 5
6 12 17 7 13 12 9 13 11 11 10 12 13 11 9 11 7 7 6 5 7 6 7 9 10 10 10 9 9 8 8 8 8 9 9 10 10 10 10 9 8 8 6 6 5 4 2 2 3
8 11 9 10 8 8 9 11 13 8 6 11 11 9 9 9 9 6 5 5 4 5 5 6 8 10 11 10 7 8 8 8 9 10 10 10 11 11 10 11 9 9 7 6 5 5 4 1 1
4 9 9 9 12 12 11 13 13 11 5 8 11 9 8 7 7 4 6 5 3 2 2 4 6 7 9 11 8 8 8 8 8 10 10 10 12 13 10 10 10 10 8 7 6 5 4 1 1
4 6 10 8 11 10 9 13 15 14 12 11 9 7 3 3 4 4 5 5 4 3 2 4 5 5 7 9 8 8 10 9 8 8 8 8 9 10 10 8 7 9 8 8 7 5 4 3 0
4 7 7 4 10 5 7 8 13 13 14 14 12 11 7 3 3 3 3 4 3 2 3 3 4 6 5 7 7 6 6 7 7 8 7 6 6 5 8 7 5 4 6 7 6 5 3 3 1
7 8 4 5 13 10 7 7 10 11 15 14 12 13 15 12 6 1 3 5 3 0 1 3 4 6 5 5 6 6 3 4 5 5 4 5 6 7 6 7 4 3 4 5 5 5 4 3 2
6 3 10 13 18 17 11 9 11 14 16 15 13 14 16 15 10 4 1 1 2 1 1 2 4 5 4 4 4 4 4 4 6 7 6 5 7 6 4 1 2 3 3 4 5 4 3 2 4
1 3 12 11 18 15 13 13 13 17 19 19 16 14 15 15 13 7 3 4 1 3 4 2 4 5 5 4 3 2 3 5 6 5 6 6 8 7 7 3 3 3 2 1 3 3 2 1 1
1 4 12 12 13 16 12 15 20 17 20 17 17 20 20 17 17 12 7 2 3 4 4 4 4 4 4 3 3 2 2 2 4 4 6 2 4 8 5 3 3 4 4 4 2 2 2 2 2
5 4 8 14 14 18 16 19 20 19 15 18 21 20 21 20 16 15 11 6 5 5 3 5 6 5 5 5 3 2 1 1 2 2 4 3 7 6 5 2 2 3 5 5 4 3 4 2 5
8 5 7 10 14 24 20 23 23 20 21 21 19 23 21 19 17 14 13 10 6 5 5 7 7 7 6 4 5 3 3 2 1 3 3 2 3 3 3 0 3 4 6 6 6 4 4 5 6
9 6 7 12 10 18 22 23 27 20 22 21 17 19 21 20 18 17 15 13 8 7 5 8 8 8 8 5 4 4 4 5 4 4 1 2 4 1 1 2 7 3 3 5 7 5 3 6 6
12 5 10 11 10 14 17 22 27 19 19 21 14 14 17 22 21 18 18 13 13 6 9 10 9 8 7 5 4 4 5 4 7 6 4 4 6 6 3 1 4 2 7 6 6 7 5 6 5
8 11 8 7 8 10 15 23 23 16 17 17 16 15 18 20 21 21 17 15 14 9 12 13 11 10 8 4 6 6 6 7 6 8 9 9 7 6 6 5 2 2 7 7 8 7 6 7 5
14 11 10 8 8 11 13 18 16 20 24 20 15 17 19 18 19 19 20 13 3 9 13 3 4 5 7 5 6 7 8 8 6 10 10 12 12 10 9 9 6 4 6 6 8 6 5 5 7
13 12 8 3 6 8 8 11 14 17 25 25 11 17 18 16 18 17 16 16 17 17 8 6 4 6 7 6 9 9 10 10 11 14 12 14 15 14 13 13 10 9 7 5 5 5 4 3 6
13 10 6 5 4 3 4 6 10 18 20 20 15 17 16 15 15 15 14 14 16 13 9 8 1 6 9 10 9 8 10 12 15 17 16 16 17 17 17 19 17 13 12 11 10 9 8 7 6
16 12 8 8 4 5 3 4 11 16 17 17 17 13 12 14 15 15 16 16 12 10 10 7 4 2 4 6 7 9 12 15 15 17 18 18 18 21 22 22 22 20 16 15 15 14 13 12 10
17 12 12 10 9 5 8 7 10 11 15 17 15 13 12 12 14 15 14 15 12 12 12 10 5 2 2 4 5 10 13 19 17 18 17 16 19 20 24 26 26 24 22 21 20 18 17 16 14
17 15 12 8 8 5 8 10 11 15 13 15 14 13 11 10 12 14 14 12 12 13 13 10 8 5 6 5 14 19 22 22 3 11 6 10 15 17 22 25 29 29 28 27 25 23 20 19 21
22 19 16 11 9 9 10 13 12 14 11 12 13 13 10 8 7 11 12 12 10 9 11 13 9 9 8 10 15 19 18 17 18 11 7 11 15 17 20 25 28 30 33 32 32 27 25 20 22
24 23 21 13 14 12 15 14 6 14 15 6 9 11 7 7 6 7 10 12 11 11 9 15 14 9 9 13 15 16 17 17 16 14 13 14 18 24 25 29 33 34 37 38 37 32 29 27 26
22 25 21 14 16 14 12 7 13 17 11 10 15 15 11 7 7 8 7 7 9 11 10 12 17 14 12 13 15 16 14 16 17 17 16 18 20 22 26 27 30 34 34 33 34 34 33 31 32
26 27 22 16 13 13 15 6 13 12 12 11 14 21 15 11 11 9 9 8 9 11 14 14 14 16 16 15 15 13 12 13 16 17 17 19 23 22 18 18 21 22 29 31 31 37 34 37 35
14 13 16 22 19 18 19 9 8 15 13 12 12 14 14 11 13 11 13 13 12 10 11 12 11 12 15 15 12 11 13 15 16 19 20 21 22 23 17 15 12 15 23 24 25 34 36 38 35
12 13 16 17 19 21 24 11 13 24 22 9 5 5 8 14 14 13 15 15 15 9 11 12 11 11 13 17 19 16 14 16 18 20 20 20 21 22 19 16 12 14 20 24 21 20 37 37 36
13 17 18 17 19 22 22 13 18 19 15 5 7 3 8 15 15 14 19 14 9 12 13 11 12 12 13 17 21 20 17 16 17 20 21 21 20 19 21 24 17 14 16 16 20 28 27 36 38
12 13 17 20 19 19 21 12 14 13 17 12 16 7 10 11 19 21 21 20 15 16 15 14 13 15 15 16 17 21 18 18 18 17 19 22 23 21 20 17 18 17 15 18 18 22 25 34 37
Wind_Direction
64 61 48 28 34 57 58 43 49 48 42 57 72 76 78 94 101 96 86 78 71 72 91 98 95 93 95 95 89 72 66 67 52 46 62 86 97 92 97 105 104 117 133 131 109 89 92 100 98
80 59 58 42 40 44 90 52 42 31 31 50 64 73 65 68 95 95 89 94 81 66 86 89 94 89 81 75 68 67 64 64 63 51 62 73 87 86 97 99 103 118 131 145 142 129 74 87 112
45 57 44 54 87 82 38 44 34 35 38 48 48 47 57 62 54 97 117 97 90 77 81 84 79 74 65 62 64 64 64 66 66 61 64 69 85 83 74 69 79 89 106 128 153 147 96 96 147
21 33 46 78 119 36 55 55 52 55 31 44 52 40 48 57 60 84 123 132 118 95 84 73 65 68 63 53 61 72 67 65 55 59 63 65 75 73 69 64 64 74 81 106 114 107 116 118 197
53 40 39 77 73 43 48 53 58 59 28 30 31 35 42 51 45 82 90 118 168 186 136 98 80 69 65 57 61 69 67 69 55 57 63 62 69 55 55 58 55 67 77 87 99 112 106 92 290
57 25 4 101 78 40 44 52 49 54 47 30 17 13 25 81 47 50 80 95 138 180 211 142 117 93 72 63 67 69 68 78 64 52 56 49 45 34 41 40 46 57 74 86 94 102 112 107 30
64 40 2 111 67 51 40 62 51 52 61 42 16 16 33 37 54 64 66 81 87 151 195 191 147 128 90 77 70 78 83 78 54 40 31 20 28 19 19 11 355 27 50 71 87 82 67 82 81
10 28 33 20 68 69 49 74 51 43 56 49 27 15 23 25 29 47 62 65 59 120 191 212 177 150 122 93 77 67 59 58 29 22 39 36 15 0 356 355 354 7 27 39 53 69 60 58 56
6 357 74 48 67 75 54 56 61 49 47 43 32 19 19 20 27 323 322 58 60 267 237 175 180 158 143 113 91 74 41 44 56 62 60 33 0 356 30 341 25 22 17 10 31 28 43 11 357
352 29 66 63 70 81 72 48 44 45 41 32 23 20 14 8 23 12 312 248 250 224 207 165 186 168 167 154 155 102 43 45 51 56 36 69 68 60 98 94 13 25 351 0 8 348 346 0 341
215 56 82 65 63 69 51 39 37 34 41 30 15 8 5 352 345 359 0 340 306 255 216 196 194 180 188 180 191 180 51 49 45 65 36 56 74 80 66 83 356 0 350 315 309 296 310 294 269
198 152 104 92 79 67 51 40 30 28 33 22 20 17 4 1 341 329 330 319 279 247 224 219 212 204 200 185 201 200 180 346 20 5 24 21 61 72 65 76 42 325 301 293 291 298 276 274 267
231 191 130 100 72 62 46 35 25 31 34 23 27 16 4 356 3 337 306 304 286 250 240 222 217 215 215 198 189 194 204 249 305 303 31 62 43 48 25 170 320 315 307 275 266 288 290 262 252
242 234 118 94 84 60 41 33 27 20 32 20 8 19 21 5 5 355 334 282 280 266 247 268 247 226 211 204 220 197 205 228 244 275 351 311 292 338 320 355 357 319 300 290 243 256 265 273 262
285 176 102 78 79 58 40 31 19 27 32 9 14 18 14 11 7 356 338 300 257 237 231 218 211 250 244 220 213 247 233 227 246 257 280 294 293 290 288 336 65 311 275 266 240 238 246 263 263
178 157 121 122 76 55 44 35 28 14 11 7 9 21 11 8 8 15 357 339 221 232 249 243 233 222 234 230 238 227 243 232 239 252 258 267 276 288 290 283 280 314 268 262 243 230 238 246 246
165 151 144 132 107 67 38 27 22 9 9 1 358 14 15 10 15 22 40 33 204 247 226 258 273 231 256 247 244 239 243 255 280 274 265 265 269 274 281 279 279 275 304 268 234 236 246 267 225
170 171 157 149 88 76 44 16 357 16 11 9 1 20 16 9 16 25 21 29 49 65 117 109 151 210 237 244 245 240 249 257 261 269 271 271 271 271 272 273 265 259 251 252 228 228 232 243 223
183 172 180 142 35 63 66 356 6 14 9 17 3 25 22 15 29 31 29 29 48 35 34 60 159 200 214 223 228 232 247 247 249 256 259 258 266 265 263 262 260 255 260 250 241 240 241 242 214
187 174 200 215 266 310 0 336 357 12 5 7 1 23 28 22 29 36 37 38 40 49 44 51 85 154 206 228 218 239 239 244 246 248 253 255 256 262 261 260 259 258 254 256 255 253 248 247 250
171 176 217 232 257 285 313 329 338 0 355 357 358 3 19 28 18 14 24 32 53 44 40 36 18 353 25 330 292 260 246 260 243 233 241 254 252 258 263 260 256 250 248 248 252 251 250 251 249
170 211 211 222 265 316 313 308 324 333 342 339 348 347 9 13 6 8 5 8 35 42 30 18 8 14 15 335 316 259 279 315 163 196 237 271 265 275 263 262 265 257 250 246 241 242 246 250 248
183 202 211 220 251 271 291 301 323 324 331 333 337 331 348 346 349 9 356 355 6 31 27 19 10 359 349 336 337 339 339 353 9 4 314 294 282 286 279 272 267 260 250 245 242 238 238 238 251
198 203 221 233 255 287 302 297 353 321 309 332 340 316 311 316 302 339 359 351 0 1 7 19 28 15 353 341 339 343 335 337 338 340 326 305 291 289 280 273 267 256 254 253 237 234 239 241 243
210 215 233 242 258 271 276 264 323 324 319 322 327 301 290 303 287 308 339 336 10 359 352 8 23 13 6 356 353 353 343 345 345 337 328 318 308 301 288 274 269 256 253 254 256 225 231 233 242
211 230 233 239 231 256 259 252 321 327 322 316 312 280 270 271 267 275 287 322 351 12 10 4 6 8 359 350 349 339 343 354 350 349 341 335 329 319 314 292 281 248 240 252 255 228 232 234 238
210 219 240 240 234 253 261 257 307 330 317 312 328 249 250 269 262 268 296 316 331 350 357 7 358 353 356 348 339 342 345 350 354 353 351 345 346 339 322 317 293 249 244 250 262 247 228 233 240
228 231 240 237 238 252 256 244 304 312 323 316 315 294 268 261 269 293 301 302 311 308 336 340 348 346 347 348 354 345 350 353 351 352 351 351 350 348 341 322 296 280 251 265 244 271 239 235 235
228 225 228 220 238 257 273 272 318 319 311 305 242 201 304 283 290 298 285 272 275 276 298 306 318 336 344 346 351 346 338 343 347 351 351 350 353 348 346 346 330 294 273 273 284 262 257 247 248
219 214 212 228 249 266 283 319 295 314 331 304 213 277 317 294 284 280 269 268 262 270 286 299 310 318 330 335 341 343 331 330 337 341 344 347 349 348 344 350 341 345 301 292 279 261 256 242 244
Height
5913 5913 5911 5910 5912 5908 5907 5906 5904 5904 5904 5902 5901 5901 5900 5899 5899 5901 5899 5901 5901 5902 5901 5903 5903 5903 5902 5903 5902 5902 5903 5903 5903 5902 5901 5901 5901 5900 5901 5902 5902 5901 5902 5902 5902 5903 5904 5905 5906
5916 5915 5915 5913 5913 5910 5906 5904 5902 5902 5902 5904 5903 5902 5901 5902 5900 5900 5901 5902 5902 5903 5902 5903 5903 5903 5903 5902 5902 5902 5902 5902 5902 5901 5901 5901 5901 5902 5903 5903 5902 5902 5902 5902 5903 5904 5905 5906 5906
5918 5917 5917 5916 5914 5912 5909 5908 5906 5904 5904 5904 5904 5903 5902 5902 5902 5902 5902 5903 5903 5904 5904 5904 5904 5903 5902 5902 5902 5902 5903 5903 5902 5902 5901 5901 5903 5903 5904 5904 5903 5903 5903 5903 5904 5905 5906 5907 5907
5918 5919 5920 5918 5917 5913 5911 5910 5909 5906 5905 5905 5905 5904 5904 5903 5903 5903 5903 5903 5904 5905 5905 5905 5905 5904 5903 5903 5903 5903 5903 5903 5903 5902 5902 5902 5902 5903 5904 5904 5904 5904 5904 5903 5904 5905 5906 5907 5907
5921 5921 5921 5919 5917 5915 5913 5911 5909 5907 5905 5904 5904 5904 5903 5904 5904 5905 5904 5903 5905 5906 5906 5906 5906 5906 5905 5903 5903 5903 5903 5903 5904 5904 5903 5903 5902 5903 5904 5905 5905 5906 5905 5905 5904 5905 5906 5907 5908
5920 5921 5921 5919 5918 5916 5915 5914 5911 5910 5907 5904 5903 5904 5905 5905 5905 5906 5904 5904 5905 5905 5907 5907 5907 5907 5906 5905 5904 5904 5905 5905 5905 5905 5905 5905 5904 5905 5904 5905 5906 5906 5907 5907 5906 5906 5907 5908 5908
5921 5921 5920 5919 5919 5919 5917 5916 5914 5913 5911 5907 5906 5906 5907 5906 5905 5906 5905 5904 5905 5905 5907 5908 5908 5907 5907 5906 5906 5906 5906 5907 5906 5906 5906 5906 5906 5905 5905 5905 5905 5905 5907 5908 5907 5907 5907 5908 5908
5920 5922 5921 5919 5920 5919 5918 5916 5916 5915 5914 5911 5909 5906 5905 5905 5905 5905 5905 5904 5904 5905 5906 5907 5908 5907 5907 5906 5907 5907 5907 5908 5907 5906 5906 5907 5907 5906 5906 5905 5905 5905 5906 5907 5908 5908 5908 5907 5907
5922 5922 5923 5921 5922 5921 5919 5917 5917 5917 5915 5913 5911 5907 5906 5906 5905 5904 5904 5904 5904 5905 5906 5907 5907 5908 5907 5907 5907 5908 5908 5908 5908 5907 5908 5907 5907 5906 5905 5905 5906 5906 5906 5907 5907 5908 5908 5907 5907
5922 5922 5923 5923 5924 5922 5922 5920 5917 5917 5914 5913 5911 5908 5906 5905 5907 5906 5905 5904 5904 5904 5905 5906 5907 5907 5907 5907 5907 5907 5907 5908 5908 5908 5908 5908 5906 5906 5905 5906 5907 5907 5907 5907 5908 5908 5908 5909 5908
5922 5923 5922 5925 5924 5924 5923 5920 5917 5917 5917 5915 5913 5911 5909 5907 5906 5906 5905 5904 5904 5905 5904 5904 5905 5906 5907 5908 5908 5908 5908 5908 5909 5908 5908 5907 5905 5906 5907 5907 5907 5907 5907 5907 5907 5908 5908 5907 5908
5922 5922 5922 5924 5925 5924 5923 5921 5921 5919 5919 5917 5916 5913 5909 5908 5907 5904 5903 5902 5902 5903 5903 5903 5903 5904 5904 5906 5907 5908 5909 5909 5909 5909 5908 5907 5906 5907 5907 5907 5907 5907 5907 5907 5907 5907 5908 5908 5909
5923 5923 5922 5921 5924 5925 5925 5925 5923 5922 5921 5920 5917 5914 5911 5909 5907 5905 5903 5902 5901 5901 5900 5901 5901 5902 5904 5904 5904 5906 5907 5908 5909 5909 5908 5907 5907 5908 5908 5907 5907 5906 5907 5907 5907 5907 5908 5908 5909
5925 5924 5924 5923 5924 5925 5926 5926 5924 5923 5922 5922 5920 5917 5914 5910 5905 5904 5902 5900 5900 5900 5901 5903 5903 5903 5901 5902 5905 5905 5905 5906 5909 5908 5907 5907 5907 5908 5908 5907 5906 5905 5905 5906 5906 5906 5906 5907 5908
5925 5926 5925 5925 5925 5925 5927 5927 5926 5924 5922 5922 5921 5918 5915 5910 5905 5902 5901 5898 5897 5898 5898 5899 5900 5904 5903 5901 5902 5904 5904 5904 5906 5908 5907 5907 5908 5908 5907 5906 5905 5905 5905 5905 5904 5905 5906 5906 5907
5924 5925 5924 5925 5925 5926 5927 5927 5926 5925 5923 5920 5918 5916 5912 5907 5904 5901 5897 5890 5892 5897 5895 5891 5898 5901 5903 5901 5901 5902 5905 5903 5904 5905 5906 5907 5907 5907 5907 5907 5906 5905 5904 5905 5904 5904 5904 5905 5906
5924 5924 5925 5926 5924 5924 5926 5926 5927 5925 5923 5920 5917 5914 5910 5906 5902 5901 5898 5895 5893 5893 5893 5894 5896 5900 5900 5899 5899 5901 5902 5903 5902 5904 5904 5904 5905 5905 5905 5906 5906 5905 5905 5904 5904 5903 5903 5904 5904
5923 5924 5925 5925 5925 5924 5925 5926 5926 5926 5922 5920 5918 5914 5912 5908 5904 5902 5901 5900 5895 5892 5895 5895 5895 5898 5899 5898 5899 5899 5900 5900 5899 5901 5901 5902 5902 5903 5902 5903 5904 5904 5904 5904 5903 5903 5903 5903 5902
5923 5924 5925 5926 5925 5924 5923 5925 5925 5924 5922 5921 5919 5915 5913 5910 5907 5904 5904 5902 5896 5894 5894 5893 5895 5897 5897 5897 5895 5897 5898 5897 5895 5896 5896 5898 5900 5900 5900 5900 5901 5902 5902 5902 5902 5902 5902 5902 5901
5923 5924 5925 5924 5924 5923 5922 5923 5923 5923 5922 5921 5918 5916 5913 5911 5907 5907 5906 5903 5901 5900 5897 5895 5896 5899 5897 5897 5894 5892 5891 5890 5891 5893 5893 5894 5894 5896 5896 5896 5897 5898 5899 5899 5900 5901 5901 5901 5900
5922 5923 5922 5923 5921 5921 5921 5921 5922 5922 5921 5920 5918 5917 5914 5911 5910 5908 5908 5906 5904 5902 5900 5900 5899 5899 5897 5896 5893 5892 5888 5886 5887 5888 5889 5891 5892 5889 5891 5892 5892 5893 5894 5895 5896 5897 5898 5899 5899
5921 5920 5920 5921 5920 5919 5920 5920 5919 5919 5920 5918 5917 5916 5914 5912 5911 5909 5906 5905 5904 5902 5901 5900 5900 5899 5897 5894 5891 5887 5880 5868 5875 5879 5884 5887 5889 5886 5885 5885 5886 5889 5890 5892 5892 5893 5894 5896 5895
5919 5917 5918 5919 5918 5919 5919 5918 5918 5918 5918 5918 5916 5914 5914 5914 5912 5912 5910 5907 5905 5903 5902 5901 5897 5895 5891 5889 5889 5886 5883 5880 5880 5883 5883 5884 5883 5881 5880 5879 5878 5879 5881 5884 5887 5888 5889 5890 5892
5915 5917 5917 5917 5917 5918 5918 5917 5918 5916 5916 5916 5916 5915 5915 5915 5913 5912 5912 5909 5904 5901 5901 5899 5896 5895 5892 5887 5887 5886 5883 5880 5880 5880 5880 5879 5877 5874 5872 5871 5870 5871 5873 5873 5875 5881 5883 5884 5886
5915 5916 5915 5916 5916 5918 5916 5917 5918 5915 5915 5915 5914 5914 5914 5914 5912 5912 5912 5911 5906 5902 5900 5898 5896 5893 5889 5888 5886 5885 5884 5881 5879 5877 5876 5874 5871 5867 5864 5861 5859 5861 5864 5866 5866 5872 5875 5877 5880
5911 5913 5913 5913 5915 5916 5915 5916 5917 5914 5913 5912 5911 5909 5911 5912 5912 5910 5909 5908 5908 5905 5902 5899 5896 5894 5892 5889 5888 5887 5886 5882 5881 5878 5874 5870 5866 5861 5857 5854 5851 5851 5855 5857 5859 5862 5867 5870 5872
5909 5909 5910 5910 5912 5913 5915 5916 5915 5912 5911 5909 5906 5906 5908 5910 5910 5907 5910 5912 5907 5903 5900 5898 5896 5895 5893 5891 5889 5886 5883 5879 5876 5873 5869 5866 5862 5858 5854 5851 5848 5847 5850 5851 5852 5855 5858 5862 5864
5906 5908 5908 5908 5910 5911 5912 5914 5914 5911 5910 5908 5905 5906 5907 5907 5909 5910 5910 5908 5905 5903 5900 5899 5897 5894 5893 5890 5885 5882 5878 5875 5872 5870 5867 5864 5861 5858 5854 5851 5848 5846 5847 5847 5847 5849 5851 5855 5857
5904 5904 5905 5907 5908 5909 5910 5913 5913 5908 5907 5907 5905 5905 5906 5907 5909 5908 5904 5902 5899 5899 5897 5895 5895 5892 5888 5884 5882 5879 5877 5874 5871 5869 5866 5863 5860 5858 5854 5852 5847 5844 5843 5842 5842 5842 5844 5847 5849
5902 5902 5904 5906 5908 5908 5908 5911 5909 5908 5904 5903 5902 5905 5906 5906 5902 5898 5896 5895 5894 5892 5891 5890 5889 5888 5885 5882 5879 5876 5873 5871 5869 5867 5865 5862 5859 5856 5853 5851 5847 5844 5840 5837 5835 5836 5838 5842 5844